#timestamp,LO_Frequency,Hit,StdDev 
1508590815.3,286046999.3,N
1508590835.2,286046999.4,N
1508590855.0,286046998.7,N
1508590855.9,286046998.7,N
1508590875.8,286047001.2,N
1508590895.6,286047002.4,N
1508590915.4,286046998.1,N
1508590935.3,286046998.1,N
1508590955.1,286046998.2,N
1508590975.9,286046998.2,N
1508590995.7,286046999.5,N
1508591015.5,286046997.1,N
1508591035.4,286046997.2,N
1508591055.2,286046999.5,N
1508591075.1,286046997.2,N
1508591076.0,286046997.2,N
1508591095.8,286046996.7,N
1508591115.6,286046999.0,N
1508591135.5,286046999.4,N
1508591155.3,286046998.7,N
1508591175.1,286046999.0,N
1508591195.9,286046998.7,N
1508591215.7,286046999.0,N
1508591235.6,286046999.4,N
1508591255.4,286046996.9,N
1508591275.2,286046996.5,N
1508591295.1,286046997.1,N
1508591296.0,286046997.1,N
1508591315.8,286046998.8,N
1508591335.6,286046998.6,N
1508591355.5,286046998.1,N
1508591375.3,286046998.2,N
1508591395.2,286046998.7,N
1508591415.9,286046999.5,N
1508591435.7,286046999.5,N
1508591455.6,286046997.0,N
1508591475.4,286046998.8,N
1508591495.2,286046999.0,N
1508591515.1,286046997.0,Y
1508591516.0,286046997.0,P
1508591535.8,286046998.9,N
1508591555.7,286046998.3,N
1508591575.5,286046998.4,N
1508591595.3,286046999.4,N
1508591615.2,286047001.1,N
1508591635.0,286047000.3,N
1508591635.9,286047000.3,N
1508591655.8,286047000.4,N
1508591675.6,286047002.8,N
1508591695.4,286047001.4,N
1508591715.3,286047002.0,N
1508591735.1,286047001.5,N
1508591755.8,286047001.8,N
1508591775.7,286047003.9,N
1508591795.5,286047001.8,N
1508591815.4,286047001.9,N
1508591835.2,286047002.7,N
1508591855.0,286047000.0,N
1508591855.9,286047000.0,N
1508591875.8,286047001.9,N
1508591895.6,286047003.7,N
1508591915.4,286047001.3,N
1508591935.3,286047002.0,N
1508591955.1,286047002.5,N
1508591975.9,286047002.1,N
1508591995.7,286046999.7,N
1508592015.5,286047001.0,N
1508592035.4,286046998.2,N
1508592055.2,286047000.8,N
1508592075.1,286047000.5,N
1508592076.0,286047000.5,N
1508592095.8,286047000.3,N
1508592115.6,286047000.2,N
1508592135.5,286047000.5,N
1508592155.3,286046999.7,N
1508592175.1,286047000.6,N
1508592195.9,286047000.9,N
1508592215.7,286047000.1,N
1508592235.6,286047000.1,N
1508592255.4,286047001.7,N
1508592275.2,286047000.1,N
1508592295.1,286047000.5,N
1508592296.0,286047000.5,N
1508592315.8,286047000.1,N
1508592335.7,286047000.4,N
1508592355.5,286046999.9,N
1508592375.3,286047000.1,N
1508592395.2,286047001.8,N
1508592415.0,286047003.5,Y
1508592415.9,286047003.5,P
1508592435.7,286047001.3,N
1508592455.6,286047001.3,N
1508592475.4,286047003.7,Y
1508592495.3,286047000.0,P
1508592515.1,286047000.8,N
1508592535.8,286047001.0,N
1508592555.7,286046998.5,N
1508592575.5,286046999.3,N
1508592595.4,286046999.5,N
1508592615.2,286046999.4,N
1508592635.0,286046998.9,N
1508592635.9,286046998.9,N
1508592655.8,286046998.6,N
1508592675.6,286047000.8,N
1508592695.4,286047000.7,N
1508592715.3,286047000.5,N
1508592735.1,286046999.8,N
1508592755.9,286047000.3,N
1508592775.7,286047000.3,N
1508592795.5,286046998.5,N
1508592815.4,286047000.9,N
1508592835.2,286047002.8,N
1508592855.1,286046999.7,N
1508592856.0,286046999.7,N
1508592875.8,286047004.0,Y
1508592895.6,286047001.9,P
1508592915.5,286047000.1,N
1508592935.3,286047002.3,N
1508592955.1,286046999.8,N
1508592975.9,286047000.1,N
1508592995.7,286046999.9,N
1508593015.6,286047001.0,N
1508593035.4,286046999.9,N
1508593055.2,286047000.5,N
1508593075.1,286046999.8,N
1508593076.0,286046999.8,N
1508593095.8,286047000.1,N
1508593115.7,286047002.8,Y
1508593135.5,286047000.3,P
1508593155.3,286047002.5,P
1508593175.2,286047002.1,N
1508593195.0,286047000.4,N
1508593195.9,286047000.4,N
1508593215.7,286047002.7,N
1508593235.6,286047001.3,N
1508593255.4,286047004.1,Y
1508593275.3,286047003.5,P
1508593295.1,286047004.4,P
1508593296.0,286047004.4,P
1508593315.8,286047002.4,N
1508593335.7,286047000.7,N
1508593355.5,286047001.2,N
1508593375.3,286047000.0,N
1508593395.2,286047003.9,N
1508593415.0,286047004.4,N
1508593415.9,286047004.4,N
1508593435.8,286047002.2,N
1508593455.6,286047000.5,N
1508593475.4,286046998.5,N
1508593495.3,286046998.9,N
1508593515.1,286046998.9,N
1508593535.9,286046999.4,N
1508593555.7,286046999.3,N
1508593575.5,286046998.3,N
1508593595.4,286047000.5,N
1508593615.2,286047002.1,N
1508593635.0,286047002.2,N
1508593635.9,286047002.2,N
1508593655.8,286047001.4,N
1508593675.6,286047001.8,N
1508593695.5,286047000.2,N
1508593715.3,286046998.4,N
1508593735.1,286046998.6,N
1508593755.9,286046998.3,N
1508593775.7,286047000.8,N
1508593795.5,286047001.2,N
1508593815.4,286047001.0,N
1508593835.2,286047000.8,N
1508593855.1,286047001.1,N
1508593856.0,286047001.1,N
1508593875.8,286047001.2,N
1508593895.6,286047002.6,N
1508593915.5,286047000.3,N
1508593935.3,286047000.5,N
1508593955.1,286046998.3,N
1508593975.9,286047000.3,N
1508593995.7,286046998.6,N
1508594015.6,286047001.2,N
1508594035.4,286047002.7,N
1508594055.2,286047000.3,N
1508594075.1,286046999.8,N
1508594076.0,286046999.8,N
1508594095.8,286047000.5,N
1508594115.7,286047000.8,N
1508594135.5,286046999.7,N
1508594155.3,286047000.1,N
1508594175.2,286046999.9,N
1508594195.0,286047000.2,N
1508594195.9,286047000.2,N
1508594215.7,286046999.8,N
1508594235.6,286047000.3,N
1508594255.4,286047000.3,N
1508594275.3,286047002.7,N
1508594295.1,286047001.3,N
1508594296.0,286047001.3,N
1508594315.8,286047004.1,Y
1508594335.7,286047000.0,P
1508594355.5,286047001.0,P
1508594375.3,286047002.8,P
1508594395.2,286047002.3,N
